Location: Piolenc
(44.1794°N, 4.7641°E)
Time: 04:50:00
(UTC+00:00)

NOSS 3-2 (C) - Pass Details

Date: 27 January 2021
Orbit: 788 x 1424 km, 63.4° (Epoch: 25 February)

Event Time Altitude Azimuth Distance (km) Brightness Sun altitude
Rises 05:09:58 0° 207° (SSW) 3,311 6.1 -20.4°
Exits shadow 05:09:58 - 207° (SSW) 3,310 6.1 -20.4°
Reaches altitude 10° 05:12:17 10° 205° (SSW) 2,422 5.4 -20.0°
Maximum altitude 05:17:47 70° 122° (ESE) 951 3.6 -19.0°
Drops below altitude 10° 05:24:07 10° 41° (NE) 2,767 6.3 -17.9°
Sets 05:26:55 0° 39° (NE) 3,819 7.0 -17.4°
